カタログに戻る

STARLINK-31818

運用中通信VLEO
NORAD 59741·PAYLOAD·🇺🇸 United States

打ち上げ May 13, 2024 から Cape Canaveral Space Force Station

Loading…

次のパス (今後24時間)

TLE

最新Source: CelesTrak SupGP

元期: Sep 14, 2026, 21:30 UTC

1 59741C 24090M   26257.89631944  .00006410  00000+0  23218-3 0  2573
2 59741  43.0023 195.1725 0001474 267.2626 116.2359 15.27574712    16

AllMySatでSTARLINK-31818をリアルタイム追跡

Download on the App Store